Regional Weather Roundup
Issued by NWS Nashville, TN

Home | Current Version | Previous Version | Text Only | Print | Product List | Glossary On
Versions: 1 2 3 4 5 6 7 8 9 10 11 12 13 14 15 16 17 18 19 20 21 22 23 24 25 26 27 28 29 30 31 32 33 34 35 36 37 38 39 40 41 42 43 44 45 46 47 48 49 50
837
ASUS44 KOHX 221910
RWROHX
MIDDLE TENNESSEE HOURLY WEATHER ROUNDUP
NATIONAL WEATHER SERVICE NASHVILLE TN
200 PM CDT FRI MAY 22 2015

NOTE: "FAIR" INDICATES FEW OR NO CLOUDS BELOW 12,000 FEET WITH
NO SIGNIFICANT WEATHER AND/OR OBSTRUCTIONS TO VISIBILITY.

* THESE REPORTS ARE NOT UNDER NWS QUALITY CONTROL AND MAY NOT
  REPORT WEATHER SUCH AS PRECIPITATION AND FOG.


TNZ005>011-023>034-057-059-062>066-078-080-222000
...NORTHERN MIDDLE TENNESSEE...

CITY           SKY/WX    TMP DP  RH WIND       PRES   REMARKS
CASTALIAN SPRG   N/A     75  45  33 E2          N/A
CLARKSVILLE    SUNNY     71  43  36 VRB3      30.27F
CROSSVILLE     SUNNY     66  40  38 VRB3      30.28F
FAIRFIELD GLAD   N/A     66  52  59 NW1         N/A
GLADEVILLE*      N/A     70  45  40 NE3         N/A
GOODLETTSVILLE   N/A     70  52  52 W3          N/A
JOELTON*         N/A     72  50  46 N2          N/A
MOUNT JULIET*    N/A     70  46  43 CALM        N/A
NASHVILLE      MOSUNNY   72  43  35 NE3       30.28S
PORTLAND       SUNNY     68  45  42 E5        30.27S
ROCKWOOD       SUNNY     68  42  38 N3          N/A
SMYRNA         SUNNY     71  43  36 VRB5      30.28F
SPARTA         SUNNY     72  45  37 VRB5      30.26F
$$
TNZ056-058-060-061-075>077-079-093>097-222000
...SOUTHERN MIDDLE TENNESSEE...

CITY           SKY/WX    TMP DP  RH WIND       PRES   REMARKS
BELLEVUE*        N/A     72  50  46 CALM        N/A
COLUMBIA       SUNNY     72  43  35 NE8       30.26S
CULLEOKA*        N/A     73  43  33 S2          N/A
EAGLEVILLE*      N/A    N/A N/A N/A CALM        N/A
LEWISBURG      SUNNY     70  40  33 N8        30.26S
MANCHESTER*      N/A     68  46  45 NE7         N/A
MCMINNVILLE    SUNNY     70  46  43 N10       30.27S
MOUNT PLEASANT   N/A     72  48  43 CALM        N/A
SHELBYVILLE    SUNNY     72  46  40 CALM      30.27F
TULLAHOMA      SUNNY     68  41  37 NE3       30.27S
WINCHESTER     SUNNY     70  45  40 VRB5      30.25S
$$


...KEY TO REMARKS...
VSB - VISIBILITY IN MILES
WCI - WIND CHILL INDEX
HX  - HEAT INDEX




USA.gov is the U.S. government's official web portal to all federal, state and local government web resources and services.